METEOR 2-5 DEB, 40214

Orbit data source: Space-Track

METEOR 2-5 DEB, 40214 is space debris in LEO originally from a launch on Wed, 31 Oct 1979 UTC launched from the Plesetsk Missile And Space Complex (PKMTR). Debris objects in space refer to the collection of defunct objects orbiting the Earth. Examples of debris include non-operational satellites, rocket bodies, and fragments generated from explosions, collisions, or faulty payload assembly.

Loading next visibility...
Identifier
40214, 1979-095CM
Orbit
LEO
Country
Flag of CISCIS
Related business
Manufacturer
Unknown
Mission
Spacecraft
Bus & Motor
Unknown
Mass
Unknown
Launch date (UTC)
1979-10-31 (47 years ago)
Launch vehicle
Unknown
Launch site
Plesetsk Missile And Space Complex (PKMTR)
Object type
Payload
Rocket body
Debris
Shape & HBR
Unknown shape, 0.1 m
Radar Cross Section
Small (<0.1 m²)

Expand to show TLE details & history
Last TLE update: 2 days ago

TLE from 2 days ago
0 METEOR 2-5 DEB
1 40214U 79095CM  26122.46076852  .00006250  00000-0  22382-2 0  9994
2 40214  81.2053 201.9317 0022826 172.1203 188.0344 14.33760477600524
Epoch: 2026-05-02T11:03Z
TLE epoch observation values (Epoch: 2026-05-02T11:03:30.400Z)
Latitude
-0.00002°
Longitude
175.67668°
Altitude
798.3 km
Speed
7.446 km/s
True Right ascension
13h 27m 43s
True Declination
0° 00' 00"
Sunlit
Object was in full shadow at epoch
Visualization orbit readout
Latitude
Unknown
Longitude
Unknown
Altitude
Unknown
Speed
Unknown
Apparent Right ascension
Unknown
Apparent Declination
Unknown
Sunlit
N/A
Visualization observer readout
Local Sidereal Time
10:29:29
Azimuth
Unknown
Elevation
Unknown
Doppler factor
Unknown
Orbital elements
Apogee altitude
792.664 km
Perigee altitude
760.002 km
Semi-major axis
7,154.47 km
Eccentricity
0.00228
Inclination
81.2053°
RAAN
201.9317°
Arg. of periapsis
172.1203°
True anomaly
187.99794°
Mean anomaly
188.0344°
Eccentric anomaly
188.01616°
Mean motion
3.58655 °/min
Orbital period
100.37 mins
BSTAR
0.0022382
Loading maneuver chart data...
Computing Atmospheric mass density...

Documentation

Showing up to 5 results
|